EN

Hourly Weather Labytnangi

Today, 30 July, Friday

Time Temperature Precipitation Wind Pressure Humidity
00:00 +10°C° 1.7 mm 4 mps 745 mmHg 93%
01:00 +10°C° 1.7 mm 4 mps 744 mmHg 94%
02:00 +10°C° 1.3 mm 4 mps 743 mmHg 93%
03:00 +10°C° 1.3 mm 4 mps 743 mmHg 93%
04:00 +9°C° 0 mm 5 mps 742 mmHg 93%
05:00 +9°C° 0.4 mm 5 mps 742 mmHg 93%
06:00 +9°C° 0.4 mm 6 mps 742 mmHg 93%
07:00 +9°C° 0.4 mm 6 mps 742 mmHg 93%
08:00 +9°C° 0.1 mm 6 mps 742 mmHg 93%
09:00 +9°C° 0.1 mm 6 mps 742 mmHg 93%
10:00 +9°C° 0.1 mm 6 mps 742 mmHg 93%
11:00 +10°C° 0.2 mm 5 mps 743 mmHg 91%
12:00 +10°C° 0.2 mm 5 mps 743 mmHg 89%
13:00 +10°C° 0.2 mm 5 mps 743 mmHg 88%
14:00 +10°C° 0.2 mm 5 mps 743 mmHg 86%
15:00 +10°C° 0.2 mm 5 mps 744 mmHg 85%
16:00 +10°C° 0.2 mm 5 mps 744 mmHg 84%
17:00 +10°C° 0.1 mm 5 mps 744 mmHg 85%
18:00 +10°C° 0.1 mm 4 mps 744 mmHg 86%
19:00 +10°C° 0.1 mm 4 mps 745 mmHg 87%
20:00 +8°C° 0.1 mm 4 mps 745 mmHg 89%
21:00 +8°C° 0.1 mm 4 mps 745 mmHg 90%
22:00 +9°C° 0.1 mm 3 mps 745 mmHg 91%
23:00 +8°C° 0 mm 3 mps 745 mmHg 92%

Tomorrow, 31 July, Saturday

Time Temperature Precipitation Wind Pressure Humidity
00:00 +8°C° 0 mm 3 mps 745 mmHg 92%
01:00 +8°C° 0 mm 2 mps 745 mmHg 93%
02:00 +8°C° 0 mm 2 mps 746 mmHg 93%
03:00 +8°C° 0 mm 2 mps 746 mmHg 92%
04:00 +8°C° 0 mm 2 mps 746 mmHg 92%
05:00 +9°C° 0 mm 2 mps 746 mmHg 90%
06:00 +9°C° 0 mm 2 mps 747 mmHg 89%
07:00 +9°C° 0 mm 2 mps 747 mmHg 88%
08:00 +10°C° 0 mm 3 mps 747 mmHg 83%
09:00 +11°C° 0 mm 3 mps 747 mmHg 79%
10:00 +12°C° 0 mm 3 mps 747 mmHg 75%
11:00 +13°C° 0.1 mm 3 mps 748 mmHg 69%
12:00 +14°C° 0.1 mm 3 mps 748 mmHg 63%
13:00 +16°C° 0.1 mm 3 mps 748 mmHg 57%
14:00 +14°C° 0 mm 4 mps 748 mmHg 57%
15:00 +14°C° 0 mm 4 mps 749 mmHg 57%
16:00 +14°C° 0 mm 4 mps 749 mmHg 57%
17:00 +14°C° 0 mm 3 mps 749 mmHg 61%
18:00 +13°C° 0 mm 3 mps 749 mmHg 65%
19:00 +12°C° 0 mm 3 mps 749 mmHg 69%
20:00 +12°C° 0 mm 2 mps 749 mmHg 74%
21:00 +9°C° 0 mm 2 mps 750 mmHg 80%
22:00 +7°C° 0 mm 2 mps 750 mmHg 86%
23:00 +8°C° 0 mm 1 mps 750 mmHg 86%

Day after tomorrow, 1 August, Sunday

Time Temperature Precipitation Wind Pressure Humidity
00:00 +8°C° 0 mm 1 mps 750 mmHg 86%
01:00 +7°C° 0 mm 0 mps 749 mmHg 86%
02:00 +8°C° 0 mm 1 mps 750 mmHg 85%
03:00 +8°C° 0 mm 1 mps 750 mmHg 85%
04:00 +9°C° 0 mm 1 mps 750 mmHg 85%
05:00 +10°C° 0 mm 1 mps 749 mmHg 81%
06:00 +10°C° 0 mm 2 mps 749 mmHg 77%
07:00 +12°C° 0 mm 2 mps 749 mmHg 73%
08:00 +12°C° 0.2 mm 2 mps 749 mmHg 75%
09:00 +13°C° 0.2 mm 2 mps 749 mmHg 76%
10:00 +13°C° 0.2 mm 2 mps 748 mmHg 78%
11:00 +12°C° 0.2 mm 3 mps 748 mmHg 81%
12:00 +12°C° 0.2 mm 3 mps 748 mmHg 84%
13:00 +11°C° 0.2 mm 3 mps 748 mmHg 86%
14:00 +12°C° 0.2 mm 3 mps 748 mmHg 87%
15:00 +12°C° 0.2 mm 4 mps 748 mmHg 88%
16:00 +12°C° 0.2 mm 4 mps 748 mmHg 89%
17:00 +12°C° 0.1 mm 3 mps 748 mmHg 90%
18:00 +12°C° 0.1 mm 3 mps 747 mmHg 91%
19:00 +12°C° 0.1 mm 3 mps 747 mmHg 92%
20:00 +12°C° 0.3 mm 3 mps 747 mmHg 93%
21:00 +12°C° 0.3 mm 3 mps 748 mmHg 95%
22:00 +13°C° 0.3 mm 2 mps 748 mmHg 96%
23:00 +13°C° 0.1 mm 2 mps 748 mmHg 97%

2 August, Monday

Time Temperature Precipitation Wind Pressure Humidity
00:00 +13°C° 0.1 mm 2 mps 748 mmHg 97%
01:00 +13°C° 0.1 mm 2 mps 748 mmHg 98%
02:00 +13°C° 0.1 mm 2 mps 748 mmHg 98%
03:00 +13°C° 0.1 mm 1 mps 748 mmHg 98%
04:00 +13°C° 0.1 mm 1 mps 748 mmHg 98%
05:00 +13°C° 0 mm 1 mps 748 mmHg 97%
06:00 +13°C° 0 mm 1 mps 749 mmHg 97%
07:00 +13°C° 0 mm 1 mps 749 mmHg 96%
08:00 +14°C° 0 mm 1 mps 749 mmHg 96%
09:00 +14°C° 0 mm 1 mps 749 mmHg 95%
10:00 +14°C° 0 mm 1 mps 749 mmHg 94%
11:00 +14°C° 0 mm 1 mps 750 mmHg 93%
12:00 +14°C° 0 mm 1 mps 750 mmHg 93%
13:00 +14°C° 0 mm 1 mps 750 mmHg 92%
14:00 +15°C° 0 mm 1 mps 751 mmHg 92%
15:00 +15°C° 0 mm 1 mps 751 mmHg 91%
16:00 +15°C° 0 mm 1 mps 751 mmHg 91%
17:00 +15°C° 0 mm 1 mps 751 mmHg 91%
18:00 +15°C° 0 mm 1 mps 752 mmHg 91%
19:00 +15°C° 0 mm 1 mps 752 mmHg 92%
20:00 +14°C° 0 mm 1 mps 752 mmHg 93%
21:00 +13°C° 0 mm 1 mps 752 mmHg 94%
22:00 +13°C° 0 mm 1 mps 752 mmHg 95%
23:00 +13°C° 0 mm 1 mps 753 mmHg 94%

3 August, Tuesday

Time Temperature Precipitation Wind Pressure Humidity
00:00 +12°C° 0 mm 1 mps 753 mmHg 94%
01:00 +12°C° 0 mm 1 mps 753 mmHg 93%
02:00 +12°C° 0 mm 1 mps 753 mmHg 93%
03:00 +12°C° 0 mm 1 mps 753 mmHg 93%
04:00 +12°C° 0 mm 1 mps 753 mmHg 93%
05:00 +13°C° 0 mm 1 mps 754 mmHg 90%
06:00 +14°C° 0 mm 1 mps 754 mmHg 87%
07:00 +15°C° 0 mm 1 mps 754 mmHg 84%
08:00 +16°C° 0 mm 1 mps 754 mmHg 79%
09:00 +18°C° 0 mm 1 mps 754 mmHg 73%
10:00 +19°C° 0 mm 1 mps 754 mmHg 68%
11:00 +20°C° 0 mm 1 mps 754 mmHg 65%
12:00 +20°C° 0 mm 1 mps 754 mmHg 62%
13:00 +21°C° 0 mm 1 mps 754 mmHg 59%
14:00 +21°C° 0 mm 1 mps 754 mmHg 59%
15:00 +21°C° 0 mm 1 mps 754 mmHg 58%
16:00 +22°C° 0 mm 1 mps 754 mmHg 57%
17:00 +21°C° 0 mm 1 mps 754 mmHg 61%
18:00 +21°C° 0 mm 1 mps 754 mmHg 64%
19:00 +20°C° 0 mm 1 mps 754 mmHg 67%
20:00 +19°C° 0 mm 1 mps 754 mmHg 70%
21:00 +18°C° 0 mm 1 mps 754 mmHg 73%
22:00 +16°C° 0 mm 1 mps 754 mmHg 76%
23:00 +16°C° 0 mm 1 mps 754 mmHg 75%

4 August, Wednesday

Time Temperature Precipitation Wind Pressure Humidity
00:00 +16°C° 0 mm 1 mps 754 mmHg 75%
01:00 +16°C° 0 mm 1 mps 754 mmHg 75%
02:00 +16°C° 0 mm 2 mps 754 mmHg 76%
03:00 +16°C° 0 mm 2 mps 754 mmHg 76%
04:00 +16°C° 0 mm 2 mps 754 mmHg 76%
05:00 +17°C° 0 mm 2 mps 754 mmHg 73%
06:00 +18°C° 0 mm 2 mps 754 mmHg 70%
07:00 +18°C° 0 mm 2 mps 754 mmHg 67%
08:00 +20°C° 0 mm 3 mps 753 mmHg 63%
09:00 +21°C° 0 mm 4 mps 753 mmHg 59%
10:00 +22°C° 0 mm 4 mps 753 mmHg 55%
11:00 +23°C° 0 mm 5 mps 753 mmHg 53%
12:00 +25°C° 0 mm 5 mps 753 mmHg 51%
13:00 +26°C° 0 mm 5 mps 752 mmHg 48%
14:00 +23°C° 0.1 mm 5 mps 753 mmHg 60%
15:00 +21°C° 0.1 mm 4 mps 753 mmHg 72%
16:00 +19°C° 0.1 mm 4 mps 753 mmHg 83%
17:00 +19°C° 0.1 mm 3 mps 753 mmHg 86%
18:00 +18°C° 0.1 mm 2 mps 753 mmHg 88%
19:00 +19°C° 0.1 mm 1 mps 753 mmHg 91%
20:00 +19°C° 0 mm 1 mps 753 mmHg 91%
21:00 +19°C° 0 mm 1 mps 753 mmHg 90%
22:00 +19°C° 0 mm 1 mps 753 mmHg 90%
23:00 +19°C° 0.5 mm 1 mps 753 mmHg 91%
Show more